Back to catalog

STARLINK-11463

AliveCommunicationsVLEO
NORAD 62066·PAYLOAD·🇺🇸 United States

Launched Nov 24, 2024 from Vandenberg Space Force Base

Loading…

Next Passes (next 24 hours)

TLE

FreshSource: CelesTrak SupGP

Epoch: Sep 14, 2026, 15:07 UTC

1 62066C 24217K   26257.63034722 -.00064686  00000+0 -53297-3 0  2572
2 62066  53.1573 219.8111 0001119  94.6861 110.4210 15.69735979    16

Track STARLINK-11463 in real time with AllMySat

Download on the App Store